Pardubice, Czech Republic

9:21 AM CEST on April 27, 2017 (GMT +0200)
Pardubice

Weather History for LKPD - November, 2013

Change the Weather History Date:

Tuesday, November 19, 2013

  Actual Average Record
Temperature  
Mean Temperature 44 °F -  
Max Temperature 46 °F - - ()
Min Temperature 41 °F - - ()
Degree Days  
Heating Degree Days 22    
Moisture  
Dew Point 40 °F    
Average Humidity 85    
Maximum Humidity 93    
Minimum Humidity 81    
Precipitation  
Precipitation 0.00 in - - ()
Sea Level Pressure  
Sea Level Pressure 29.76 in    
Wind  
Wind Speed 5 mph ()    
Max Wind Speed 8 mph    
Max Gust Speed -    
Visibility 5.3 miles    
Events      
T = Trace of Precipitation, MM = Missing Value Source: Averaged Metar Reports

Daily Weather History Graph

Daily Weather History Graph

Search for Another Location

Airport or City:

Trip Planner

Search our weather history database for the weather conditions in past years. The results will help you decide how hot, cold, wet, or windy it might be!

Date:

Astronomy

Nov. 19, 2013 Rise Set
Actual Time 7:16 AM CET 4:08 PM CET
Civil Twilight 6:40 AM CET 4:44 PM CET
Nautical Twilight 6:00 AM CET 5:23 PM CET
Astronomical Twilight 5:22 AM CET 6:02 PM CET
Moon 5:42 PM CET (11/19) 8:43 AM CET (11/19)
Length of Visible Light 10h 03m
Length of Day
8h 51m
Full, 97% of the Moon is Illuminated
Nov 19
Full
Nov 25
Last Quarter
Dec 3
New
Dec 9
First Quarter
Dec 17
Full

Hourly Weather History & Observations

Time (CET) Temp. Windchill Dew Point Humidity Pressure Visibility Wind Dir Wind Speed Gust Speed Precip Events Conditions
12:00 AM 42.8 °F 41.1 °F 39.2 °F 87% 29.89 in 6.2 mi East 3.5 mph - N/A   Overcast
1:00 AM 42.8 °F 40.1 °F 39.2 °F 87% 29.86 in 6.2 mi ESE 4.6 mph - N/A   Overcast
2:00 AM 44.6 °F 41.4 °F 39.2 °F 81% 29.86 in 6.2 mi SE 5.8 mph - N/A   Overcast
3:00 AM 42.8 °F 41.1 °F 39.2 °F 87% 29.86 in 5.0 mi ESE 3.5 mph - N/A   Overcast
4:00 AM 42.8 °F 40.1 °F 39.2 °F 87% 29.83 in 5.0 mi SE 4.6 mph - N/A   Overcast
5:00 AM 42.8 °F 38.0 °F 39.2 °F 87% 29.83 in 5.0 mi SE 8.1 mph - N/A   Overcast
6:00 AM 42.8 °F 40.1 °F 39.2 °F 87% 29.80 in 5.0 mi East 4.6 mph - N/A   Overcast
7:00 AM 42.8 °F 41.1 °F 39.2 °F 87% 29.80 in 6.2 mi East 3.5 mph - N/A   Overcast
8:00 AM 44.6 °F 43.1 °F 39.2 °F 81% 29.80 in 6.2 mi East 3.5 mph - N/A   Overcast
9:00 AM 44.6 °F 43.1 °F 39.2 °F 81% 29.80 in 6.2 mi ENE 3.5 mph - N/A   Overcast
10:00 AM 44.6 °F 42.2 °F 41.0 °F 87% 29.80 in 6.2 mi East 4.6 mph - N/A   Overcast
11:00 AM 46.4 °F 42.4 °F 41.0 °F 81% 29.80 in 5.0 mi East 8.1 mph - N/A   Overcast
12:00 PM 46.4 °F 42.9 °F 42.8 °F 87% 29.77 in 5.0 mi East 6.9 mph - N/A   Overcast
1:00 PM 46.4 °F 43.5 °F 41.0 °F 81% 29.74 in 5.0 mi ESE 5.8 mph - N/A   Overcast
2:00 PM 46.4 °F 43.5 °F 41.0 °F 81% 29.74 in 5.0 mi ESE 5.8 mph - N/A   Overcast
3:00 PM 46.4 °F 42.9 °F 41.0 °F 81% 29.71 in 4.3 mi East 6.9 mph - N/A   Overcast
4:00 PM 46.4 °F 43.5 °F 41.0 °F 81% 29.71 in 3.7 mi ENE 5.8 mph - N/A   Overcast
5:00 PM 46.4 °F 43.5 °F 41.0 °F 81% 29.68 in 3.7 mi East 5.8 mph - N/A   Overcast
6:00 PM 42.8 °F 38.6 °F 39.2 °F 87% 29.68 in 4.3 mi East 6.9 mph - N/A   Scattered Clouds
7:00 PM 41.0 °F 38.0 °F 39.2 °F 93% 29.68 in 4.3 mi East 4.6 mph - N/A   Mostly Cloudy
8:00 PM 42.8 °F 38.6 °F 39.2 °F 87% 29.68 in 4.3 mi ESE 6.9 mph - N/A   Mostly Cloudy
9:00 PM 42.8 °F 38.6 °F 39.2 °F 87% 29.68 in 6.2 mi East 6.9 mph - N/A   Mostly Cloudy
10:00 PM 44.6 °F 41.4 °F 39.2 °F 81% 29.65 in 6.2 mi East 5.8 mph - N/A   Overcast
11:00 PM 44.6 °F 40.7 °F 39.2 °F 81% 29.65 in 6.2 mi East 6.9 mph - N/A   Overcast